Time,TemperatureF,DewpointF,PressureIn,WindDirection,WindDirectionDegrees,WindSpeedMPH,WindSpeedGustMPH,Humidity,HourlyPrecipIn,Conditions,Clouds,dailyrainin,SoftwareType,DateUTC
2013-10-30 00:11:00,40.0,36.0,30.16,North,7,0.0,0.0,87,0.00,,,0.00,,2013-10-30 07:11:00,
2013-10-30 00:21:00,40.0,36.0,30.16,North,7,0.0,0.0,87,0.00,,,0.00,,2013-10-30 07:21:00,
2013-10-30 00:42:00,39.0,35.0,30.16,North,7,0.0,0.0,87,0.00,,,0.00,,2013-10-30 07:42:00,
2013-10-30 00:52:00,39.0,35.0,30.16,North,7,0.0,0.0,87,0.00,,,0.00,,2013-10-30 07:52:00,
2013-10-30 01:11:00,39.0,35.0,30.16,North,7,0.0,0.0,87,0.00,,,0.00,,2013-10-30 08:11:00,
2013-10-30 01:21:00,39.0,35.0,30.16,North,7,0.0,0.0,87,0.00,,,0.00,,2013-10-30 08:21:00,
2013-10-30 01:42:00,38.0,35.0,30.17,North,7,0.0,0.0,88,0.00,,,0.00,,2013-10-30 08:42:00,
2013-10-30 01:52:00,38.0,35.0,30.17,North,7,0.0,0.0,88,0.00,,,0.00,,2013-10-30 08:52:00,
2013-10-30 02:02:00,38.0,35.0,30.17,North,7,0.0,0.0,88,0.00,,,0.00,,2013-10-30 09:02:00,
2013-10-30 02:11:00,38.0,35.0,30.17,North,7,0.0,0.0,88,0.00,,,0.00,,2013-10-30 09:11:00,
2013-10-30 02:21:00,38.0,35.0,30.17,North,7,0.0,0.0,88,0.00,,,0.00,,2013-10-30 09:21:00,
2013-10-30 02:43:00,37.0,34.0,30.19,North,7,0.0,0.0,89,0.00,,,0.00,,2013-10-30 09:43:00,
2013-10-30 02:54:00,37.0,34.0,30.19,North,7,0.0,0.0,89,0.00,,,0.00,,2013-10-30 09:54:00,
2013-10-30 03:12:00,37.0,34.0,30.19,North,7,0.0,0.0,89,0.00,,,0.00,,2013-10-30 10:12:00,
2013-10-30 03:23:00,37.0,34.0,30.19,North,7,0.0,0.0,89,0.00,,,0.00,,2013-10-30 10:23:00,
2013-10-30 03:43:00,37.0,34.0,30.20,North,7,0.0,0.0,89,0.00,,,0.00,,2013-10-30 10:43:00,
2013-10-30 03:53:00,37.0,34.0,30.20,North,7,0.0,0.0,89,0.00,,,0.00,,2013-10-30 10:53:00,
2013-10-30 04:12:00,36.0,33.0,30.20,North,7,0.0,0.0,89,0.00,,,0.00,,2013-10-30 11:12:00,
2013-10-30 04:22:00,36.0,33.0,30.20,North,7,0.0,0.0,89,0.00,,,0.00,,2013-10-30 11:22:00,
2013-10-30 04:42:00,36.0,33.0,30.20,North,7,0.0,0.0,89,0.00,,,0.00,,2013-10-30 11:42:00,
2013-10-30 04:52:00,36.0,33.0,30.20,North,7,0.0,0.0,89,0.00,,,0.00,,2013-10-30 11:52:00,
2013-10-30 05:12:00,35.0,32.0,30.21,North,7,0.0,0.0,89,0.00,,,0.00,,2013-10-30 12:12:00,
2013-10-30 05:22:00,35.0,32.0,30.21,North,7,0.0,0.0,89,0.00,,,0.00,,2013-10-30 12:22:00,
2013-10-30 05:42:00,35.0,32.0,30.21,North,7,0.0,0.0,89,0.00,,,0.00,,2013-10-30 12:42:00,
2013-10-30 05:52:00,35.0,32.0,30.21,North,7,0.0,0.0,89,0.00,,,0.00,,2013-10-30 12:52:00,
2013-10-30 06:11:00,35.0,32.0,30.22,North,7,0.0,0.0,89,0.00,,,0.00,,2013-10-30 13:11:00,
2013-10-30 06:22:00,35.0,32.0,30.22,North,7,0.0,0.0,89,0.00,,,0.00,,2013-10-30 13:22:00,
2013-10-30 06:52:00,35.0,32.0,30.23,North,7,0.0,0.0,89,0.00,,,0.00,,2013-10-30 13:52:00,
2013-10-30 07:11:00,35.0,32.0,30.23,North,7,0.0,0.0,90,0.00,,,0.00,,2013-10-30 14:11:00,
2013-10-30 07:21:00,35.0,32.0,30.23,North,7,0.0,0.0,90,0.00,,,0.00,,2013-10-30 14:21:00,
2013-10-30 07:42:00,34.0,31.0,30.23,North,7,0.0,0.0,89,0.00,,,0.00,,2013-10-30 14:42:00,
2013-10-30 07:52:00,34.0,31.0,30.23,North,7,0.0,0.0,89,0.00,,,0.00,,2013-10-30 14:52:00,
2013-10-30 08:11:00,34.0,31.0,30.24,North,7,0.0,0.0,90,0.00,,,0.00,,2013-10-30 15:11:00,
2013-10-30 08:22:00,34.0,31.0,30.24,North,7,0.0,0.0,90,0.00,,,0.00,,2013-10-30 15:22:00,
2013-10-30 08:43:00,35.0,32.0,30.25,North,7,0.0,0.0,90,0.00,,,0.00,,2013-10-30 15:43:00,
2013-10-30 08:54:00,35.0,32.0,30.25,North,7,0.0,0.0,90,0.00,,,0.00,,2013-10-30 15:54:00,
2013-10-30 09:12:00,35.0,33.0,30.25,North,7,0.0,0.0,91,0.00,,,0.00,,2013-10-30 16:12:00,
2013-10-30 09:23:00,35.0,33.0,30.25,North,7,0.0,0.0,91,0.00,,,0.00,,2013-10-30 16:23:00,
2013-10-30 09:43:00,36.0,34.0,30.26,North,7,0.0,0.0,91,0.00,,,0.00,,2013-10-30 16:43:00,
2013-10-30 09:53:00,36.0,34.0,30.26,North,7,0.0,0.0,91,0.00,,,0.00,,2013-10-30 16:53:00,
2013-10-30 10:12:00,37.0,35.0,30.27,North,7,0.0,0.0,91,0.00,,,0.00,,2013-10-30 17:12:00,
2013-10-30 10:22:00,37.0,35.0,30.27,North,7,0.0,0.0,91,0.00,,,0.00,,2013-10-30 17:22:00,
2013-10-30 10:42:00,43.0,40.0,30.27,North,7,0.0,0.0,89,0.00,,,0.00,,2013-10-30 17:42:00,
2013-10-30 10:52:00,43.0,40.0,30.27,North,7,0.0,0.0,89,0.00,,,0.00,,2013-10-30 17:52:00,
2013-10-30 11:12:00,48.0,43.0,30.27,North,7,0.0,0.0,82,0.00,,,0.00,,2013-10-30 18:12:00,
2013-10-30 11:21:00,48.0,43.0,30.27,North,7,0.0,0.0,82,0.00,,,0.00,,2013-10-30 18:21:00,
2013-10-30 11:52:00,52.0,46.0,30.27,North,7,0.0,0.0,79,0.00,,,0.00,,2013-10-30 18:52:00,
2013-10-30 12:11:00,54.0,46.0,30.27,North,7,0.0,0.0,75,0.00,,,0.00,,2013-10-30 19:11:00,
2013-10-30 12:52:00,59.0,46.0,30.26,ENE,65,0.0,0.0,63,0.00,,,0.00,,2013-10-30 19:52:00,
2013-10-30 14:12:00,62.0,44.0,30.26,SSW,198,0.0,0.0,51,0.00,,,0.00,,2013-10-30 21:12:00,
2013-10-30 14:21:00,62.0,44.0,30.26,SSW,198,0.0,0.0,51,0.00,,,0.00,,2013-10-30 21:21:00,
2013-10-30 14:43:00,60.0,46.0,30.25,SE,135,0.0,0.0,60,0.00,,,0.00,,2013-10-30 21:43:00,
2013-10-30 14:53:00,60.0,46.0,30.25,SE,135,0.0,0.0,60,0.00,,,0.00,,2013-10-30 21:53:00,
2013-10-30 15:13:00,59.0,47.0,30.25,NE,38,0.0,0.0,64,0.00,,,0.00,,2013-10-30 22:13:00,
2013-10-30 15:23:00,59.0,47.0,30.25,NE,38,0.0,0.0,64,0.00,,,0.00,,2013-10-30 22:23:00,
2013-10-30 15:43:00,58.0,45.0,30.25,North,1,0.0,0.0,63,0.00,,,0.00,,2013-10-30 22:43:00,
2013-10-30 15:54:00,58.0,45.0,30.25,North,1,0.0,0.0,63,0.00,,,0.00,,2013-10-30 22:54:00,
2013-10-30 16:12:00,58.0,45.0,30.25,North,1,1.0,1.0,61,0.00,,,0.00,,2013-10-30 23:12:00,
2013-10-30 16:22:00,58.0,45.0,30.25,North,1,1.0,1.0,61,0.00,,,0.00,,2013-10-30 23:22:00,
2013-10-30 16:42:00,57.0,44.0,30.26,North,0,1.0,-999.0,62,-99.99,,,-99.99,,2013-10-30 23:42:00,
2013-10-30 16:53:00,57.0,44.0,30.26,North,0,1.0,-999.0,62,-99.99,,,-99.99,,2013-10-30 23:53:00,
2013-10-30 17:11:00,56.0,44.0,30.27,North,0,0.0,-999.0,65,-99.99,,,-99.99,,2013-10-31 00:11:00,
2013-10-30 17:22:00,56.0,44.0,30.27,North,0,0.0,-999.0,65,-99.99,,,-99.99,,2013-10-31 00:22:00,
2013-10-30 17:52:00,55.0,43.0,30.27,North,0,0.0,-999.0,65,-99.99,,,-99.99,,2013-10-31 00:52:00,
2013-10-30 18:12:00,55.0,44.0,30.27,North,0,0.0,-999.0,67,-99.99,,,-99.99,,2013-10-31 01:12:00,
2013-10-30 18:22:00,55.0,44.0,30.27,North,0,0.0,-999.0,67,-99.99,,,-99.99,,2013-10-31 01:22:00,
2013-10-30 18:42:00,54.0,46.0,30.27,North,0,0.0,-999.0,73,-99.99,,,-99.99,,2013-10-31 01:42:00,
2013-10-30 18:52:00,54.0,46.0,30.27,North,0,0.0,-999.0,73,-99.99,,,-99.99,,2013-10-31 01:52:00,
2013-10-30 19:12:00,52.0,44.0,30.27,North,0,0.0,-999.0,75,-99.99,,,-99.99,,2013-10-31 02:12:00,
2013-10-30 19:22:00,52.0,44.0,30.27,North,0,0.0,-999.0,75,-99.99,,,-99.99,,2013-10-31 02:22:00,
2013-10-30 20:11:00,50.0,44.0,30.28,North,0,0.0,-999.0,79,-99.99,,,-99.99,,2013-10-31 03:11:00,
2013-10-30 20:22:00,50.0,44.0,30.28,North,0,0.0,-999.0,79,-99.99,,,-99.99,,2013-10-31 03:22:00,
2013-10-30 20:44:00,49.0,43.0,30.28,North,0,0.0,-999.0,81,-99.99,,,-99.99,,2013-10-31 03:44:00,
2013-10-30 20:55:00,49.0,43.0,30.28,North,0,0.0,-999.0,81,-99.99,,,-99.99,,2013-10-31 03:55:00,
2013-10-30 21:14:00,49.0,44.0,30.28,North,0,0.0,-999.0,82,-99.99,,,-99.99,,2013-10-31 04:14:00,
2013-10-30 21:23:00,49.0,44.0,30.28,North,0,0.0,-999.0,82,-99.99,,,-99.99,,2013-10-31 04:23:00,
2013-10-30 21:43:00,49.0,44.0,30.28,North,0,0.0,-999.0,83,-99.99,,,-99.99,,2013-10-31 04:43:00,
2013-10-30 21:54:00,49.0,44.0,30.28,North,0,0.0,-999.0,83,-99.99,,,-99.99,,2013-10-31 04:54:00,
2013-10-30 22:13:00,48.0,43.0,30.29,North,0,0.0,-999.0,84,-99.99,,,-99.99,,2013-10-31 05:13:00,
2013-10-30 22:23:00,48.0,43.0,30.29,North,0,0.0,-999.0,84,-99.99,,,-99.99,,2013-10-31 05:23:00,
2013-10-30 22:52:00,48.0,44.0,30.29,North,0,0.0,-999.0,85,-99.99,,,-99.99,,2013-10-31 05:52:00,
2013-10-30 23:12:00,48.0,44.0,30.29,North,0,0.0,-999.0,85,-99.99,,,-99.99,,2013-10-31 06:12:00,
2013-10-30 23:21:00,48.0,44.0,30.29,North,0,0.0,-999.0,85,-99.99,,,-99.99,,2013-10-31 06:21:00,
2013-10-30 23:53:00,48.0,44.0,30.29,North,0,0.0,-999.0,86,-99.99,,,-99.99,,2013-10-31 06:53:00,